Wind_Speed
16 17 18 19 20 20 20 20 20 20 20 20 21 22 23 24 25 26 25 24 23 23 23 23 23 24 24 24 23 22 21 20 20 19 18 18 18 17 17 17 16 16 16 15 14 14 13 12 11
17 18 19 20 20 21 20 21 21 21 21 22 23 23 24 25 26 26 26 25 25 25 25 24 24 25 25 25 25 24 23 22 21 21 20 20 19 19 19 19 18 18 17 16 16 15 15 14 13
18 19 20 21 21 21 21 22 22 22 23 24 24 25 26 25 26 27 27 27 27 26 26 27 26 26 26 26 26 25 25 25 23 22 22 22 22 21 21 20 20 20 19 18 17 17 16 16 15
18 19 21 22 22 22 22 23 23 24 25 26 26 26 26 27 27 28 28 28 28 28 28 28 28 28 28 28 28 27 26 26 26 25 24 24 24 23 22 22 21 21 21 20 19 19 18 18 17
18 20 21 21 21 22 24 25 25 26 27 27 28 28 28 29 29 29 29 30 29 29 30 29 29 30 29 30 29 29 28 28 27 27 27 26 26 25 25 24 23 23 23 22 21 20 20 20 19
19 20 21 21 21 23 25 25 26 27 28 28 29 30 30 31 31 31 31 31 32 32 31 31 31 31 31 30 31 30 30 30 29 29 28 28 29 28 27 26 25 24 23 23 23 22 22 21 20
19 20 21 21 21 23 24 25 26 27 28 29 30 31 31 31 32 33 33 33 33 33 33 33 33 33 33 32 32 32 32 32 31 31 30 29 29 30 30 29 28 26 25 24 24 24 23 23 22
20 21 22 22 22 23 25 25 26 27 28 29 30 31 32 32 33 34 34 34 34 34 35 35 35 35 35 35 35 34 33 33 33 33 32 31 30 31 31 30 29 28 28 27 26 25 25 25 24
21 22 22 22 23 23 25 26 26 28 29 29 31 32 32 33 33 34 35 35 35 35 36 36 36 36 36 36 36 36 36 35 35 35 34 33 32 31 32 31 30 29 29 28 28 27 26 26 26
22 22 22 22 23 24 25 26 27 28 29 30 31 32 33 34 34 35 35 36 37 37 37 37 37 38 38 38 37 37 37 37 37 36 36 35 34 33 33 32 31 31 30 30 30 29 28 28 28
22 23 23 24 25 25 26 26 27 27 29 31 32 33 34 34 35 36 36 37 38 38 38 38 38 38 38 39 39 39 38 38 38 37 37 36 36 35 35 34 34 33 32 31 31 31 30 29 29
23 24 24 25 25 26 27 27 28 28 29 30 32 33 34 35 35 35 37 37 38 38 39 40 40 40 40 40 40 40 40 39 38 38 38 37 37 37 36 36 35 35 34 33 32 32 32 31 30
23 23 24 25 26 27 28 28 29 29 30 30 32 33 34 34 33 34 35 37 38 38 38 39 40 41 41 41 41 40 40 40 40 39 39 39 38 38 37 37 37 36 35 35 34 34 33 32 32
24 24 25 26 26 27 28 29 29 28 29 30 31 31 33 33 33 33 34 36 37 38 38 38 39 41 41 41 41 41 41 41 41 41 40 40 41 39 38 38 39 38 37 36 35 35 35 34 33
25 25 25 26 27 27 28 28 28 28 29 29 29 30 31 31 32 32 33 34 35 37 38 38 39 40 41 41 42 42 42 42 42 42 42 42 42 42 40 40 40 40 39 38 37 36 35 35 35
26 26 26 26 27 27 28 26 27 27 27 28 29 29 29 30 31 32 33 34 35 36 37 37 38 39 40 41 42 44 44 43 43 43 43 43 43 43 43 42 41 41 40 40 39 39 38 37 36
26 27 27 27 27 28 28 27 27 28 28 28 29 30 30 31 32 32 33 34 35 36 36 36 37 38 39 40 42 44 44 44 44 44 44 44 44 44 44 44 44 42 42 41 41 41 40 40 39
26 27 28 28 28 28 29 28 28 28 29 29 29 30 31 32 32 33 33 34 35 36 37 36 37 38 39 39 41 43 44 45 45 45 45 45 44 45 46 46 46 45 44 43 43 42 42 42 42
27 27 28 28 28 29 29 29 29 29 29 29 29 30 31 32 33 33 33 34 35 36 37 38 38 38 39 39 40 42 43 45 45 45 46 46 46 46 47 47 47 47 47 46 45 44 44 43 44
27 27 28 28 29 30 30 29 28 28 29 30 30 31 31 32 32 32 32 33 35 36 36 37 38 39 40 40 40 42 44 45 45 45 46 46 47 48 49 49 49 49 48 48 47 46 46 45 46
26 27 28 28 29 30 31 29 28 27 29 30 31 31 32 32 32 32 32 33 34 36 37 38 39 39 40 41 41 43 45 45 45 45 46 47 48 48 49 50 50 50 50 50 49 49 48 47 48
26 27 28 29 29 29 31 32 28 29 29 30 31 31 30 31 32 32 32 33 35 36 37 39 40 41 42 43 43 44 44 44 45 46 47 47 48 49 50 51 51 52 52 52 52 51 51 50 50
26 27 28 29 30 30 30 33 30 29 29 30 31 31 30 30 31 31 32 33 34 35 37 39 40 40 42 43 43 44 45 46 46 47 47 48 48 49 50 52 52 52 52 53 53 53 53 52 52
27 27 29 30 30 30 30 32 32 30 30 30 31 32 32 32 32 32 32 33 34 35 36 38 39 39 41 42 43 44 45 46 47 48 48 48 49 49 50 52 53 54 54 54 54 54 54 54 54
27 28 29 30 30 30 30 31 31 31 31 31 31 31 32 32 32 32 33 34 34 35 36 38 39 39 41 42 43 44 46 47 48 48 49 49 49 49 50 51 52 53 54 54 54 54 54 55 54
28 29 30 31 32 32 31 32 31 31 31 32 32 32 33 32 32 32 33 33 34 35 36 37 38 39 40 41 43 45 46 47 47 48 49 50 50 50 50 51 52 53 54 55 55 54 54 54 54
29 29 30 32 34 35 34 33 32 32 32 32 32 33 33 33 33 33 33 33 34 35 37 38 38 39 40 42 44 45 46 47 48 49 49 49 49 50 50 50 51 53 54 55 55 55 55 56 55
30 30 31 31 34 36 36 36 35 34 33 34 34 33 33 34 35 35 34 34 35 36 37 38 40 41 40 42 44 46 46 47 48 49 49 50 49 49 49 50 51 52 54 54 55 55 55 56 56
30 31 31 32 34 36 38 37 36 35 35 35 34 34 34 35 36 36 37 37 37 38 38 39 40 41 42 42 44 46 47 47 47 49 50 50 50 51 50 50 50 51 52 53 54 55 55 55 55
31 32 32 33 35 36 39 39 37 36 36 36 35 34 34 35 36 37 38 39 38 38 38 39 40 41 42 42 43 45 46 47 47 48 49 49 50 51 51 51 51 51 51 52 53 54 55 55 55
Wind_Direction
265 261 259 258 257 257 259 258 257 256 256 256 256 252 252 252 250 250 249 248 247 245 243 242 241 240 239 238 239 241 239 238 236 235 235 234 233 234 236 238 239 239 240 242 244 244 244 243 242
266 264 262 259 259 260 261 260 258 257 257 256 256 255 254 253 253 253 251 250 248 247 246 244 242 241 240 239 239 240 239 238 237 236 237 236 236 237 238 240 241 241 241 243 245 244 242 242 242
268 266 263 262 260 262 262 261 259 258 257 257 256 256 256 255 254 253 252 251 250 248 248 246 244 242 241 240 240 241 242 240 240 238 237 238 238 239 239 240 241 240 241 242 244 244 241 242 244
270 268 265 264 263 262 262 262 261 259 259 259 258 257 257 256 255 254 253 252 251 248 247 246 245 244 243 242 242 242 243 244 242 241 239 239 240 241 240 240 240 241 241 242 243 243 242 242 244
270 269 268 265 263 261 260 261 261 260 260 260 259 258 257 256 256 255 254 253 251 250 248 247 246 245 245 244 244 244 244 244 243 243 243 242 242 243 243 242 243 242 242 242 243 244 242 242 244
271 270 270 268 266 263 261 262 262 262 262 261 261 260 258 257 256 255 254 253 252 250 249 248 247 246 247 246 246 246 246 245 245 245 245 245 244 245 244 243 244 245 244 243 243 244 244 244 244
274 272 271 270 268 266 265 265 266 265 264 262 261 261 260 259 257 255 254 253 252 251 250 249 248 247 247 246 246 247 247 247 247 247 247 247 246 246 245 244 245 246 246 244 244 244 245 244 245
274 275 274 273 271 270 269 269 269 267 266 264 263 263 261 260 259 257 255 254 253 251 250 249 248 247 247 247 247 247 247 248 249 248 248 248 248 247 246 246 246 247 248 247 246 247 246 246 245
274 276 276 277 275 273 271 271 271 270 269 267 267 266 263 260 259 257 255 254 254 252 250 249 249 247 247 247 247 247 247 248 248 248 248 248 248 248 248 248 248 248 248 248 248 248 248 247 246
275 277 279 278 276 276 274 274 274 272 271 269 268 268 266 263 261 258 255 254 254 253 251 250 249 248 247 247 248 247 247 248 249 248 248 248 248 249 248 248 249 249 250 250 249 249 250 249 248
276 278 280 279 277 277 277 276 276 273 271 270 269 269 267 265 263 260 258 256 255 254 252 251 250 248 248 247 247 247 247 248 248 248 248 248 248 248 248 248 248 248 249 251 251 250 251 251 250
279 279 279 278 278 278 279 278 276 275 274 272 271 270 269 266 265 263 260 258 256 255 252 250 249 248 248 248 248 248 247 247 248 248 248 248 248 248 248 249 249 249 250 251 252 251 251 252 252
284 284 283 282 281 280 280 279 278 276 275 276 274 272 269 267 265 264 262 259 258 257 254 252 251 249 248 248 248 248 248 247 247 248 248 248 248 248 248 249 249 250 251 251 252 253 252 253 253
286 285 284 284 283 283 282 280 279 279 279 278 276 274 270 267 266 265 263 261 259 257 255 253 252 250 249 247 247 248 248 248 247 248 249 249 248 248 248 249 250 250 250 251 252 253 253 253 252
287 285 285 285 285 284 283 282 282 282 282 280 277 275 272 269 269 268 266 263 260 258 256 254 253 250 248 247 248 248 248 248 248 248 249 250 250 248 248 249 250 250 250 250 251 252 252 251 250
286 286 285 285 285 285 283 283 283 281 281 279 277 274 272 271 271 270 269 267 263 260 257 254 252 250 249 249 248 248 248 248 248 248 249 249 250 250 250 250 250 249 248 249 250 251 252 252 250
287 288 289 289 288 285 283 284 282 279 278 278 275 273 274 271 271 271 270 268 265 262 258 255 253 251 251 251 250 248 248 248 248 247 247 249 249 250 251 251 250 249 249 250 251 251 253 253 252
291 291 291 291 289 287 285 285 285 282 280 279 277 276 275 274 272 270 270 269 266 263 259 257 255 253 252 253 252 250 249 249 249 248 247 248 249 249 250 251 251 251 251 251 251 252 254 253 253
295 294 292 291 289 288 287 285 286 284 281 279 279 280 279 275 272 270 270 269 268 265 261 258 255 254 254 255 253 251 250 250 250 250 249 248 249 249 250 251 251 251 251 251 251 252 254 254 253
295 293 292 291 290 290 289 286 285 284 283 282 281 282 281 276 273 271 270 270 268 265 262 260 256 254 254 255 255 254 252 252 252 252 251 251 251 250 251 251 252 252 252 252 252 252 254 252 252
295 295 294 294 293 291 290 288 286 286 285 284 283 283 282 279 277 274 272 271 270 267 264 262 257 256 256 256 255 254 253 252 252 253 253 253 254 253 253 252 252 252 252 253 253 253 254 254 254
297 297 296 294 294 293 293 292 290 290 287 285 286 287 285 283 280 277 275 274 273 270 266 263 259 258 258 257 257 255 255 254 254 254 253 254 255 255 254 254 254 253 253 253 253 254 255 256 256
298 298 297 296 295 294 294 293 293 292 290 288 288 288 287 284 283 281 278 275 274 271 268 264 261 258 257 256 256 255 255 255 254 254 254 255 256 256 255 255 255 255 255 254 255 255 256 257 257
298 298 298 298 297 296 297 296 296 295 293 291 290 290 289 287 286 284 281 278 275 273 270 266 261 260 258 257 255 255 255 255 255 254 254 255 255 255 256 255 254 254 255 255 255 256 257 257 257
299 300 301 300 300 300 301 300 301 300 296 293 291 290 290 289 287 284 282 280 278 276 272 267 263 262 261 259 257 257 256 256 256 255 255 254 255 255 256 256 255 255 255 256 256 256 257 257 258
301 301 301 301 302 301 300 300 302 301 299 295 293 291 289 289 288 285 283 282 279 277 273 268 266 264 264 261 259 259 259 258 258 257 256 255 255 255 257 257 257 256 256 256 256 256 257 257 257
301 300 301 301 301 301 300 301 302 302 300 296 294 292 290 288 288 286 284 282 280 277 274 272 269 268 266 263 261 261 261 260 259 258 257 255 255 256 257 257 257 257 257 256 256 256 257 257 257
302 302 302 303 302 302 301 301 302 302 301 297 294 292 291 289 287 285 283 282 281 279 277 274 273 270 269 267 263 262 263 262 260 259 258 257 256 257 257 258 257 257 258 258 257 257 257 258 257
303 302 302 301 301 301 301 300 302 301 299 297 294 292 289 288 286 284 283 283 281 280 279 278 277 273 271 269 266 263 263 263 262 260 259 258 258 258 258 258 258 258 258 258 257 257 257 257 258
302 301 301 300 300 300 299 300 301 299 297 297 295 293 291 289 287 286 285 284 283 281 280 279 277 274 273 271 268 265 264 263 262 261 261 260 260 259 259 259 259 259 259 259 258 259 258 258 259
Height
5798 5799 5799 5799 5800 5801 5801 5802 5802 5803 5804 5805 5806 5807 5808 5809 5811 5814 5814 5814 5816 5818 5819 5821 5823 5824 5826 5828 5829 5830 5832 5833 5835 5836 5837 5838 5839 5841 5842 5843 5844 5845 5846 5847 5848 5849 5850 5851 5852
5795 5795 5796 5796 5796 5796 5797 5797 5798 5799 5800 5801 5802 5803 5803 5805 5806 5807 5808 5810 5812 5814 5815 5817 5818 5820 5822 5823 5825 5826 5828 5830 5831 5832 5834 5835 5836 5838 5839 5840 5841 5842 5843 5845 5846 5847 5848 5849 5849
5791 5791 5792 5792 5792 5792 5793 5792 5794 5794 5795 5796 5797 5798 5799 5801 5802 5802 5804 5806 5808 5809 5811 5813 5814 5816 5817 5819 5821 5822 5824 5825 5827 5828 5830 5831 5833 5834 5836 5837 5838 5839 5840 5841 5843 5844 5845 5846 5847
5788 5788 5788 5788 5788 5788 5788 5788 5789 5790 5791 5791 5792 5793 5794 5796 5796 5797 5799 5801 5803 5804 5806 5808 5809 5811 5813 5814 5816 5818 5819 5821 5823 5824 5825 5827 5828 5830 5831 5833 5834 5836 5837 5838 5839 5841 5842 5843 5844
5783 5783 5783 5783 5783 5784 5783 5783 5784 5784 5785 5786 5786 5787 5789 5790 5791 5792 5793 5795 5797 5799 5801 5802 5804 5806 5808 5809 5811 5813 5814 5816 5818 5820 5821 5823 5824 5826 5827 5829 5830 5832 5833 5834 5835 5837 5838 5840 5841
5779 5779 5779 5779 5779 5779 5778 5779 5779 5779 5779 5780 5781 5781 5783 5784 5785 5786 5787 5789 5791 5793 5794 5796 5798 5800 5802 5804 5806 5807 5809 5811 5813 5815 5816 5818 5819 5821 5823 5824 5826 5827 5829 5830 5831 5833 5834 5836 5837
5776 5775 5774 5774 5774 5773 5773 5773 5773 5773 5773 5774 5774 5775 5776 5777 5778 5779 5781 5782 5784 5786 5788 5790 5792 5794 5796 5798 5800 5802 5803 5805 5807 5809 5811 5813 5815 5816 5818 5819 5821 5823 5824 5826 5827 5829 5830 5831 5833
5770 5770 5769 5769 5769 5769 5768 5768 5767 5767 5767 5767 5767 5768 5769 5771 5771 5772 5774 5775 5777 5779 5780 5782 5785 5787 5789 5791 5794 5796 5797 5799 5801 5804 5805 5807 5809 5811 5813 5814 5816 5818 5820 5821 5823 5824 5826 5827 5828
5765 5766 5764 5764 5764 5763 5762 5762 5761 5761 5761 5761 5760 5761 5762 5762 5764 5765 5766 5768 5770 5771 5773 5775 5777 5779 5782 5784 5787 5789 5791 5793 5795 5797 5799 5801 5803 5805 5807 5809 5811 5813 5814 5816 5817 5819 5821 5822 5824
5760 5760 5760 5759 5758 5757 5756 5755 5755 5755 5754 5754 5753 5754 5754 5754 5756 5757 5758 5760 5761 5763 5765 5767 5769 5772 5774 5777 5779 5781 5784 5786 5788 5791 5793 5795 5797 5799 5801 5803 5805 5807 5809 5810 5812 5814 5815 5817 5818
5755 5755 5754 5753 5751 5751 5750 5749 5748 5748 5747 5747 5747 5747 5747 5747 5747 5748 5749 5751 5753 5754 5757 5759 5761 5763 5766 5769 5771 5774 5776 5779 5781 5783 5786 5788 5790 5793 5795 5797 5799 5800 5802 5804 5806 5808 5809 5811 5812
5749 5748 5747 5746 5745 5744 5744 5743 5742 5741 5740 5739 5739 5738 5738 5738 5738 5739 5740 5742 5743 5745 5747 5750 5752 5755 5757 5760 5763 5765 5768 5771 5773 5776 5778 5781 5783 5786 5788 5790 5792 5794 5796 5798 5800 5801 5803 5805 5806
5744 5743 5741 5740 5739 5738 5737 5736 5735 5734 5733 5732 5731 5730 5730 5730 5730 5730 5731 5732 5734 5736 5738 5740 5742 5745 5748 5751 5754 5757 5760 5762 5765 5768 5770 5773 5775 5778 5780 5782 5785 5787 5789 5791 5793 5794 5796 5798 5800
5738 5736 5735 5734 5732 5731 5730 5728 5727 5727 5725 5724 5723 5722 5721 5721 5721 5722 5722 5723 5725 5727 5729 5731 5733 5736 5738 5742 5745 5748 5751 5754 5756 5759 5762 5764 5767 5770 5772 5775 5777 5779 5781 5783 5785 5787 5789 5791 5792
5731 5730 5729 5727 5726 5724 5723 5722 5721 5720 5718 5717 5715 5714 5713 5713 5714 5714 5714 5715 5716 5717 5719 5721 5724 5726 5729 5732 5735 5738 5741 5744 5747 5750 5753 5755 5758 5761 5763 5766 5769 5771 5773 5775 5777 5779 5781 5783 5785
5725 5723 5723 5722 5719 5717 5717 5716 5714 5712 5710 5709 5708 5707 5706 5706 5706 5706 5706 5706 5707 5708 5709 5712 5714 5716 5719 5722 5725 5728 5731 5734 5737 5740 5743 5746 5749 5751 5754 5757 5760 5762 5764 5766 5768 5771 5772 5774 5776
5718 5717 5716 5715 5712 5710 5709 5709 5707 5704 5703 5702 5701 5700 5699 5699 5698 5698 5698 5698 5698 5699 5701 5703 5705 5707 5709 5712 5715 5718 5721 5724 5727 5730 5733 5736 5739 5741 5744 5747 5750 5753 5755 5757 5759 5762 5764 5766 5768
5712 5710 5709 5707 5705 5703 5701 5701 5700 5697 5696 5695 5693 5692 5691 5690 5690 5689 5689 5689 5689 5690 5692 5694 5695 5698 5700 5703 5706 5709 5711 5714 5717 5720 5723 5725 5728 5731 5734 5737 5740 5743 5745 5748 5750 5752 5754 5756 5759
5705 5703 5701 5700 5697 5695 5694 5693 5692 5690 5688 5687 5686 5685 5683 5681 5680 5680 5680 5680 5681 5682 5683 5684 5686 5688 5691 5693 5696 5698 5701 5704 5706 5709 5712 5715 5718 5721 5723 5726 5729 5732 5735 5737 5740 5742 5745 5746 5749
5698 5696 5694 5692 5689 5687 5686 5685 5684 5683 5681 5680 5678 5677 5674 5673 5672 5672 5672 5672 5672 5673 5674 5675 5677 5678 5681 5683 5686 5688 5690 5693 5695 5698 5701 5703 5706 5709 5712 5715 5718 5721 5724 5726 5729 5732 5734 5736 5738
5692 5689 5687 5685 5683 5680 5678 5678 5677 5676 5673 5671 5670 5668 5666 5665 5664 5663 5663 5663 5663 5663 5664 5665 5667 5668 5670 5673 5675 5677 5679 5682 5684 5687 5689 5692 5694 5697 5700 5703 5706 5709 5712 5715 5717 5720 5723 5725 5727
5685 5683 5680 5677 5675 5673 5671 5668 5671 5668 5666 5663 5662 5660 5658 5657 5656 5655 5654 5654 5654 5654 5654 5655 5657 5658 5660 5662 5664 5666 5668 5671 5674 5676 5678 5680 5682 5685 5687 5690 5693 5696 5699 5702 5705 5708 5710 5713 5715
5679 5677 5674 5671 5668 5666 5664 5660 5662 5660 5658 5656 5654 5652 5650 5649 5648 5646 5645 5645 5644 5644 5644 5645 5646 5647 5649 5650 5653 5655 5657 5659 5662 5664 5666 5668 5670 5672 5675 5678 5680 5683 5686 5689 5692 5695 5697 5700 5703
5672 5670 5668 5664 5661 5659 5658 5654 5653 5651 5650 5648 5646 5644 5642 5641 5639 5638 5636 5635 5635 5634 5634 5635 5636 5637 5638 5639 5641 5643 5645 5647 5649 5651 5653 5656 5658 5660 5662 5664 5667 5670 5673 5676 5679 5681 5684 5687 5689
5666 5664 5660 5657 5654 5652 5650 5646 5646 5643 5641 5639 5638 5636 5634 5632 5631 5629 5628 5626 5626 5625 5625 5625 5625 5626 5627 5628 5629 5631 5633 5634 5636 5638 5640 5643 5645 5647 5649 5651 5653 5656 5659 5662 5665 5667 5670 5673 5675
5660 5657 5654 5650 5647 5645 5643 5640 5640 5637 5633 5631 5629 5628 5626 5624 5623 5620 5619 5617 5616 5615 5615 5615 5615 5616 5616 5617 5617 5619 5620 5621 5623 5625 5627 5630 5632 5634 5636 5638 5640 5642 5645 5647 5650 5653 5656 5658 5661
5653 5650 5648 5644 5640 5637 5635 5634 5632 5629 5626 5623 5621 5619 5617 5616 5614 5612 5610 5608 5607 5605 5605 5604 5604 5604 5605 5605 5605 5606 5608 5609 5610 5612 5614 5616 5618 5620 5623 5625 5627 5628 5630 5633 5636 5639 5641 5644 5646
5648 5644 5641 5636 5632 5629 5627 5626 5624 5621 5618 5615 5613 5610 5608 5607 5605 5603 5601 5599 5597 5596 5595 5594 5593 5593 5592 5593 5593 5594 5594 5595 5597 5598 5600 5602 5604 5606 5609 5611 5613 5614 5616 5618 5621 5624 5627 5629 5632
5641 5638 5633 5630 5626 5622 5618 5620 5616 5613 5609 5606 5604 5601 5599 5598 5596 5594 5592 5589 5587 5586 5584 5583 5581 5581 5581 5580 5580 5581 5581 5582 5583 5585 5586 5588 5590 5592 5594 5596 5598 5600 5602 5604 5606 5609 5612 5614 5617
5634 5631 5627 5624 5619 5615 5610 5612 5608 5605 5600 5597 5595 5592 5590 5588 5585 5584 5582 5580 5578 5576 5574 5572 5570 5569 5568 5568 5567 5567 5568 5569 5570 5571 5573 5574 5576 5578 5580 5582 5584 5586 5587 5589 5591 5594 5597 5599 5602